Temperature
15 15 16 16 16 16 16 16 16 16 16 16 16 16 16 16 16 16 16 16 16 16 16 16 16 16 16 15 15 15 15 15 15 15 15 15 15 15 15 15 14 14 15
15 15 16 16 16 16 16 16 16 16 16 16 16 16 16 16 16 16 16 16 16 16 16 15 15 15 15 15 15 15 15 15 15 15 15 15 15 15 15 15 15 14 15
15 15 15 16 16 16 16 16 16 16 16 16 16 16 16 16 16 16 16 16 16 15 15 15 15 15 15 15 15 15 15 15 15 15 15 14 14 15 15 15 15 15 15
15 15 15 15 16 16 16 16 16 16 16 16 16 16 16 16 16 16 16 15 15 15 15 15 15 15 15 15 15 15 15 15 15 15 14 14 14 14 14 15 14 14 14
15 15 15 15 15 16 16 16 16 16 16 16 15 15 15 15 15 15 15 15 15 15 15 15 15 15 15 15 15 15 15 15 15 14 14 14 14 14 14 14 14 14 14
14 15 15 15 15 15 15 15 15 15 15 15 15 15 15 15 15 15 15 15 15 15 15 15 15 15 15 15 15 14 14 14 14 14 14 14 14 14 14 14 14 14 14
14 14 15 15 15 15 15 15 15 15 15 15 15 15 15 15 15 15 15 15 15 15 15 15 15 15 15 15 15 14 14 14 14 13 14 14 14 14 14 14 14 14 14
14 14 15 15 15 15 15 15 15 15 15 15 15 15 15 15 15 15 15 15 15 15 15 15 15 15 15 15 15 14 14 14 14 13 13 13 14 14 14 14 14 14 14
14 14 14 14 14 14 15 15 15 15 15 15 15 15 15 15 15 15 15 15 15 15 14 14 14 14 14 14 14 14 14 14 13 13 13 13 14 14 14 14 14 14 14
14 14 14 14 14 14 14 14 15 15 15 15 15 15 15 15 14 14 14 14 14 14 14 14 14 14 14 14 14 14 14 14 13 13 13 13 14 13 14 14 14 14 14
13 14 14 14 14 14 14 14 14 14 14 14 14 14 14 14 14 14 14 14 14 14 14 14 14 14 14 14 14 14 14 13 13 13 13 13 13 13 13 13 13 13 13
13 13 13 14 14 14 14 14 14 14 14 14 14 14 14 14 14 14 14 14 14 14 14 14 14 14 13 13 13 13 13 13 13 13 13 13 13 13 13 13 13 13 13
13 13 13 13 13 14 14 14 14 14 14 14 14 14 14 14 14 14 14 13 14 13 13 13 13 13 13 13 13 13 13 13 12 12 12 13 13 13 13 13 13 13 13
12 13 13 13 13 13 13 13 14 14 13 13 14 14 14 14 13 13 13 13 13 13 13 13 13 13 12 12 12 12 12 12 12 12 12 13 13 13 13 13 13 13 13
12 12 13 13 13 13 13 13 13 13 13 13 13 13 13 13 13 13 13 13 13 13 13 13 12 12 12 12 12 12 12 12 12 12 12 12 12 12 12 12 12 12 12
12 12 12 13 13 13 13 13 13 13 13 13 13 13 13 13 13 13 13 13 12 12 12 12 12 12 12 12 12 12 12 12 12 11 11 12 12 12 12 12 12 12 12
12 12 12 12 13 13 13 13 13 13 13 13 13 13 13 13 13 12 12 12 12 12 12 12 12 12 12 12 11 11 11 11 11 11 11 11 11 11 12 12 12 12 12
12 12 12 12 12 12 12 12 12 12 12 12 12 12 12 12 12 12 12 12 12 12 12 12 11 11 11 11 11 11 11 11 11 11 11 11 11 11 11 11 11 11 11
11 12 12 12 12 12 12 12 12 12 12 12 12 12 12 12 12 12 12 12 12 11 11 11 11 11 11 11 11 11 10 10 10 10 10 10 10 10 10 10 10 11 10
11 11 11 12 12 12 12 12 12 12 11 11 11 11 11 11 11 11 11 11 11 11 11 11 11 11 11 11 10 10 10 10 10 10 10 10 10 10 10 10 10 10 10
11 11 11 11 11 11 11 11 11 11 11 11 11 11 11 11 11 11 11 11 11 11 11 11 11 11 10 10 10 9 9 10 9 9 9 9 9 9 9 9 9 10 10
11 11 11 11 11 11 11 11 11 11 10 10 10 10 10 10 10 10 10 10 10 10 10 10 10 10 10 10 9 8 9 9 9 9 9 9 9 9 9 9 9 9 9
11 11 11 10 10 10 11 11 10 10 10 10 10 10 10 10 10 10 10 10 10 10 10 10 10 9 9 9 9 8 8 9 8 8 9 9 9 9 9 9 9 9 8
11 10 10 10 10 10 10 10 10 10 10 10 10 10 10 9 9 9 9 9 9 9 9 9 9 9 9 8 8 8 8 8 7 8 8 8 8 8 8 8 8 8 8
10 10 10 10 10 10 10 10 10 10 9 9 9 9 9 9 9 9 9 9 9 9 9 9 9 9 8 8 8 8 7 7 7 7 7 7 7 8 7 7 7 7 8
10 10 10 10 10 10 9 9 9 9 9 9 9 9 9 9 9 9 9 9 8 8 8 8 8 8 8 8 7 7 7 6 6 6 6 6 6 7 7 7 7 7 7
Wind_Speed
6 7 9 8 9 9 10 10 10 10 10 9 9 10 9 9 8 8 8 8 8 8 8 8 7 7 7 7 7 7 7 8 8 7 7 6 6 6 6 4 3 6 7
8 9 10 9 9 9 9 10 10 10 9 9 9 9 9 8 8 7 7 7 7 7 7 7 7 7 7 7 6 6 6 6 6 6 5 5 5 5 4 3 3 5 5
8 9 10 9 9 10 9 9 9 9 9 8 8 8 8 8 7 6 6 6 6 6 7 6 6 6 6 6 5 5 5 5 4 3 2 3 5 4 3 2 3 3 3
8 9 9 9 10 10 10 9 9 9 8 8 8 7 7 7 7 6 6 5 5 6 6 5 5 5 5 5 4 4 4 3 2 2 1 2 3 4 2 2 2 2 1
7 8 9 9 10 10 10 9 8 8 8 7 7 7 7 7 6 6 6 5 5 5 5 5 4 4 3 3 3 3 3 2 2 4 1 1 1 3 0 0 0 0 1
7 8 10 9 10 10 9 8 7 8 8 7 7 6 6 6 6 6 6 5 5 5 4 4 3 3 3 2 2 1 1 0 4 2 1 1 1 2 1 2 2 2 2
6 7 9 9 9 10 10 9 8 7 7 7 7 6 6 6 6 6 5 5 4 4 4 3 3 2 2 2 1 1 1 2 3 2 2 2 1 0 2 3 3 3 3
6 7 9 9 9 10 10 9 8 7 7 7 7 6 5 6 6 5 5 4 4 4 3 2 2 2 1 1 1 1 0 3 4 3 3 2 1 3 3 3 4 4 4
6 6 7 8 9 9 9 8 8 7 6 7 7 6 6 5 5 5 4 4 4 3 3 2 2 2 1 1 0 0 1 3 5 3 3 3 1 4 5 5 5 5 5
5 5 6 6 7 7 7 8 8 7 7 7 7 7 6 5 5 4 4 4 3 3 2 2 2 1 1 0 0 1 2 6 5 4 4 2 2 5 5 6 6 6 6
4 3 4 5 6 6 6 7 7 6 6 6 6 6 4 3 2 3 4 4 3 3 2 2 1 1 1 2 1 2 5 5 4 4 3 2 4 6 6 6 6 6 7
4 3 3 4 5 5 5 5 5 4 4 3 4 4 3 2 2 2 3 3 2 2 1 1 0 1 3 2 2 4 4 4 4 4 2 2 4 6 7 7 6 6 7
5 4 2 3 4 5 4 4 3 3 3 3 3 3 2 2 1 1 1 0 0 0 1 0 2 2 2 2 3 3 4 4 4 3 2 2 4 6 6 6 6 6 7
5 4 3 3 4 4 4 3 3 3 3 2 3 2 2 2 1 1 1 2 1 1 2 2 2 2 3 3 4 4 4 4 4 3 2 2 4 6 6 7 6 6 7
4 4 3 2 4 4 4 3 3 3 3 3 2 2 2 1 1 1 1 1 2 2 2 2 3 3 3 3 3 4 4 4 4 4 3 1 3 5 6 6 7 7 6
4 3 3 3 3 4 3 3 3 3 3 3 3 3 3 2 1 1 1 1 2 2 3 3 3 2 2 2 3 3 4 4 4 4 4 2 2 4 5 6 6 6 6
4 4 3 3 3 4 4 3 3 3 3 3 3 3 3 2 2 1 1 1 2 3 3 3 2 2 2 2 3 3 3 4 4 4 4 4 4 3 3 4 4 5 5
4 4 4 3 3 3 4 3 3 3 3 3 3 3 3 3 3 2 1 2 3 3 3 2 2 2 2 3 3 3 3 2 3 3 3 4 4 4 3 2 3 4 5
5 4 4 3 2 3 4 4 4 3 3 3 3 3 3 3 3 2 2 2 3 2 2 2 2 2 3 3 3 3 3 3 3 3 3 3 3 4 4 2 2 4 5
4 4 3 3 2 3 3 3 3 3 3 3 3 3 4 4 3 3 2 3 3 2 2 3 3 3 2 3 3 3 3 3 2 2 3 3 3 3 4 4 4 3 3
4 4 3 2 2 3 2 1 1 1 1 2 2 3 3 4 4 3 3 3 3 2 3 3 3 3 2 3 3 3 3 3 2 2 2 2 2 3 3 4 4 5 4
4 4 3 3 3 2 2 1 1 1 1 1 1 2 3 3 3 3 3 2 3 3 3 3 3 2 2 2 2 3 3 3 2 2 2 2 3 2 3 3 4 4 5
3 3 3 3 2 2 2 2 1 1 1 1 1 0 1 2 2 2 2 2 2 3 3 3 3 3 3 2 2 2 3 3 3 3 3 3 3 3 3 3 4 4 5
3 3 3 3 3 3 2 2 1 1 0 0 0 0 0 1 1 1 2 2 2 2 2 3 3 3 3 3 2 2 3 3 3 3 3 3 4 4 4 4 4 4 5
3 4 4 4 3 3 2 2 1 1 0 0 0 0 0 0 0 1 1 1 2 2 2 3 3 3 3 3 3 3 3 4 5 5 6 5 5 4 4 5 4 4 4
3 3 4 4 3 3 3 2 2 1 1 0 1 1 1 1 1 1 2 2 2 2 3 3 3 3 3 3 3 3 4 3 4 5 6 7 7 5 5 5 4 4 5
Wind_Direction
151 152 145 147 141 137 137 136 134 129 131 132 132 131 129 126 121 116 112 111 111 106 104 104 100 100 97 95 94 92 88 86 81 78 80 80 84 89 88 82 80 91 81
147 148 146 148 142 137 137 137 134 133 131 132 132 133 132 130 127 123 118 115 113 110 106 103 97 94 96 95 96 98 97 92 86 83 92 108 99 92 92 76 36 73 84
144 144 148 145 143 139 135 137 138 137 134 135 135 133 131 130 129 127 126 121 117 113 109 106 100 96 94 93 96 99 103 103 98 105 192 135 112 104 99 101 89 91 90
144 146 143 141 144 138 135 138 142 140 137 135 137 135 133 131 126 123 124 119 117 113 110 106 103 101 100 99 97 102 106 111 121 216 191 108 113 106 95 105 122 98 103
144 146 136 137 144 140 136 136 142 142 138 132 134 136 134 131 127 122 120 113 111 111 111 112 107 106 104 112 106 105 104 110 186 231 138 119 125 108 105 309 236 266 244
145 144 137 133 138 139 135 130 130 136 135 128 129 133 133 129 122 116 111 111 109 106 105 106 107 106 107 115 121 121 111 154 237 220 209 211 167 109 236 254 259 255 261
138 136 140 132 129 131 130 127 120 123 126 123 118 123 129 125 117 109 109 111 113 111 107 103 101 106 108 117 119 123 126 271 271 251 246 247 257 249 253 247 253 256 254
129 132 135 127 125 127 126 123 117 115 121 121 111 105 114 117 113 110 109 111 112 111 108 101 95 97 115 122 118 95 246 270 260 257 254 258 279 263 260 260 256 258 253
117 132 137 139 132 126 122 119 115 107 113 119 117 103 95 106 110 108 105 106 107 101 97 92 85 85 91 109 140 209 259 272 266 259 258 258 256 258 262 266 261 256 257
106 121 134 140 137 135 132 118 115 107 107 113 112 109 105 104 111 110 107 92 91 93 90 85 75 60 56 82 163 246 258 257 261 259 259 267 278 266 268 268 266 260 259
103 119 134 139 133 128 133 128 124 119 110 126 122 117 131 124 109 123 87 79 75 73 77 74 61 33 273 204 208 255 251 262 267 271 274 331 289 277 276 273 270 269 264
113 98 136 141 136 125 123 133 129 129 129 120 124 129 127 108 82 69 105 91 83 72 109 92 129 227 256 258 227 236 259 271 273 268 281 326 288 284 281 277 271 272 271
123 105 93 129 129 124 115 119 122 126 122 111 102 113 115 103 90 62 45 119 157 227 292 278 240 274 292 298 292 279 284 281 276 277 287 315 291 287 287 283 272 270 271
122 114 101 105 118 118 116 112 118 112 104 98 90 81 92 84 64 47 25 1 335 322 321 311 315 310 300 295 291 290 286 278 277 278 290 308 294 290 290 286 284 277 272
122 114 100 100 113 110 113 111 104 108 97 94 86 74 67 72 77 42 20 10 353 336 324 313 302 312 306 307 301 298 294 286 281 276 271 247 285 293 292 288 285 285 286
130 120 104 97 105 106 105 103 91 100 94 80 76 70 62 54 51 31 12 1 352 338 321 309 308 307 303 303 300 299 296 289 282 283 287 267 251 285 297 296 294 293 294
136 126 111 93 98 106 98 92 86 90 90 80 66 64 62 51 38 14 5 356 344 334 327 315 316 304 299 295 291 298 300 296 290 290 292 292 285 267 279 295 298 302 305
138 131 113 99 109 112 102 98 87 87 92 83 73 66 63 53 42 24 5 356 343 334 332 327 315 304 300 298 300 303 296 293 289 296 296 294 293 292 277 284 294 307 311
146 139 126 111 121 111 102 98 86 94 89 80 71 59 55 53 43 36 12 355 343 337 339 337 321 311 303 305 305 299 294 286 284 292 295 299 299 299 297 291 271 287 301
139 133 128 115 119 114 103 97 92 96 92 82 71 56 49 48 41 33 19 1 351 340 340 338 328 318 306 304 298 292 284 278 274 284 295 306 317 311 307 305 292 287 281
139 129 123 113 117 119 113 110 125 116 113 99 74 56 49 42 35 32 20 7 358 346 336 333 330 315 320 318 291 286 269 259 261 285 306 312 322 323 318 315 311 306 301
150 143 139 124 107 107 108 96 79 110 135 104 78 59 45 42 31 20 17 7 360 345 337 340 338 320 319 331 303 288 275 245 229 280 281 304 311 318 323 326 325 318 309
162 159 146 138 126 117 109 115 121 131 141 135 120 71 32 35 34 16 6 356 351 345 340 334 326 311 300 300 307 287 283 280 302 250 268 283 297 303 307 313 313 312 309
175 162 157 155 147 134 137 149 146 145 104 6 327 319 13 28 26 17 352 343 337 329 325 327 315 300 290 281 289 291 288 295 281 282 263 270 287 293 297 301 306 308 307
169 161 162 156 151 152 159 155 154 145 115 64 331 347 331 354 9 356 330 328 321 309 308 308 311 301 292 287 285 283 277 278 272 276 283 289 288 284 292 293 294 295 297
161 161 164 164 167 172 177 174 174 183 188 212 277 305 309 308 302 312 302 305 305 299 298 300 297 292 288 287 285 280 275 272 275 272 277 289 293 291 290 288 288 292 296
Height
1529 1530 1532 1533 1535 1536 1537 1538 1538 1539 1539 1540 1540 1540 1540 1541 1541 1541 1541 1541 1540 1540 1540 1540 1540 1540 1540 1539 1539 1539 1539 1539 1538 1538 1538 1538 1538 1537 1537 1537 1537 1537 1536
1528 1530 1531 1533 1535 1536 1537 1538 1538 1539 1540 1540 1540 1541 1541 1541 1541 1541 1541 1541 1541 1541 1541 1541 1541 1540 1540 1540 1540 1540 1539 1539 1539 1539 1539 1538 1538 1538 1538 1537 1537 1537 1537
1528 1530 1531 1533 1535 1536 1537 1538 1538 1539 1540 1540 1541 1541 1541 1541 1541 1541 1541 1541 1541 1541 1541 1541 1541 1541 1540 1540 1540 1540 1540 1539 1539 1539 1539 1540 1539 1538 1538 1538 1537 1537 1537
1528 1530 1531 1533 1534 1536 1536 1537 1538 1539 1540 1540 1541 1541 1541 1541 1541 1542 1542 1542 1541 1541 1541 1541 1541 1541 1541 1540 1540 1540 1540 1539 1539 1539 1540 1540 1539 1538 1538 1538 1538 1537 1537
1529 1530 1531 1533 1534 1535 1536 1537 1538 1539 1539 1540 1540 1541 1541 1541 1541 1541 1541 1541 1541 1541 1541 1541 1541 1540 1540 1540 1540 1540 1540 1540 1539 1539 1540 1539 1539 1538 1538 1537 1537 1537 1537
1528 1530 1531 1532 1533 1535 1536 1537 1538 1538 1539 1540 1540 1541 1541 1541 1541 1541 1541 1541 1541 1541 1541 1541 1540 1540 1540 1540 1540 1539 1539 1539 1539 1540 1539 1539 1539 1537 1537 1537 1537 1536 1536
1528 1529 1531 1532 1533 1535 1535 1537 1537 1538 1539 1539 1539 1540 1540 1541 1541 1541 1541 1541 1541 1540 1540 1540 1540 1539 1539 1539 1539 1539 1539 1538 1539 1539 1538 1538 1537 1537 1536 1536 1536 1536 1535
1527 1529 1530 1531 1533 1534 1535 1536 1537 1537 1538 1538 1539 1539 1539 1540 1540 1540 1540 1540 1540 1540 1539 1539 1539 1539 1538 1538 1538 1537 1537 1537 1538 1538 1538 1537 1536 1536 1535 1535 1535 1535 1534
1527 1528 1530 1531 1532 1533 1534 1535 1536 1537 1537 1538 1538 1538 1539 1539 1539 1539 1539 1539 1539 1538 1538 1538 1538 1537 1537 1537 1536 1536 1536 1536 1537 1537 1536 1536 1535 1534 1534 1534 1534 1533 1533
1526 1527 1529 1530 1531 1532 1533 1534 1535 1536 1536 1537 1537 1538 1538 1538 1538 1538 1538 1538 1537 1537 1537 1537 1536 1536 1536 1535 1535 1535 1534 1534 1535 1535 1534 1534 1533 1533 1532 1532 1532 1532 1531
1525 1527 1528 1529 1530 1531 1532 1533 1534 1535 1535 1536 1536 1537 1537 1537 1537 1537 1537 1536 1536 1536 1535 1535 1535 1534 1534 1534 1533 1533 1533 1533 1533 1533 1532 1531 1531 1531 1530 1530 1530 1530 1529
1524 1526 1527 1528 1529 1530 1531 1532 1533 1534 1535 1535 1535 1535 1536 1536 1535 1535 1535 1535 1535 1534 1534 1534 1533 1533 1533 1532 1532 1531 1531 1531 1531 1530 1530 1529 1529 1528 1528 1528 1528 1527 1527
1523 1524 1525 1527 1528 1529 1530 1531 1532 1533 1533 1533 1534 1534 1534 1534 1534 1534 1533 1533 1533 1533 1533 1532 1532 1531 1531 1530 1530 1530 1529 1529 1529 1528 1527 1526 1526 1526 1526 1526 1525 1525 1524
1522 1524 1525 1526 1527 1528 1529 1530 1531 1531 1532 1532 1532 1532 1532 1533 1532 1532 1532 1531 1531 1531 1531 1530 1530 1529 1529 1528 1528 1528 1527 1527 1526 1525 1525 1524 1524 1523 1523 1523 1522 1522 1522
1522 1523 1523 1525 1526 1527 1528 1529 1529 1530 1530 1531 1531 1531 1531 1531 1531 1531 1530 1530 1530 1529 1529 1528 1528 1528 1527 1527 1526 1525 1525 1525 1524 1523 1522 1521 1521 1520 1520 1520 1519 1519 1518
1521 1522 1523 1524 1524 1525 1526 1527 1528 1529 1529 1529 1529 1529 1529 1529 1529 1529 1529 1528 1528 1528 1527 1527 1526 1525 1525 1524 1524 1523 1523 1522 1521 1521 1520 1519 1518 1517 1517 1516 1516 1516 1515
1520 1522 1522 1523 1523 1524 1524 1525 1526 1527 1527 1527 1528 1528 1528 1528 1527 1527 1527 1527 1526 1525 1525 1525 1524 1523 1523 1522 1522 1521 1520 1520 1519 1518 1517 1516 1515 1514 1514 1513 1513 1512 1512
1520 1521 1522 1522 1522 1523 1523 1524 1525 1525 1526 1526 1526 1526 1526 1526 1525 1526 1525 1525 1524 1524 1523 1523 1522 1522 1521 1520 1520 1519 1518 1517 1516 1516 1515 1514 1513 1512 1511 1510 1510 1509 1509
1519 1520 1521 1521 1522 1522 1522 1523 1523 1524 1524 1525 1525 1525 1525 1524 1524 1524 1524 1524 1523 1522 1522 1521 1521 1520 1519 1518 1517 1516 1516 1515 1514 1513 1512 1511 1510 1509 1509 1508 1507 1506 1505
1518 1519 1520 1520 1520 1521 1521 1522 1522 1523 1523 1523 1523 1523 1523 1523 1523 1523 1522 1522 1522 1521 1520 1519 1519 1518 1517 1516 1515 1514 1513 1512 1511 1511 1510 1509 1508 1507 1506 1505 1504 1503 1502
1517 1517 1519 1520 1520 1519 1520 1521 1521 1521 1522 1522 1522 1522 1522 1522 1521 1521 1521 1520 1520 1519 1519 1518 1517 1516 1515 1514 1513 1512 1511 1510 1509 1508 1507 1507 1505 1504 1503 1502 1501 1500 1499
1517 1518 1519 1519 1518 1519 1520 1521 1521 1520 1521 1520 1520 1520 1520 1520 1520 1520 1519 1518 1518 1517 1517 1516 1515 1514 1513 1512 1512 1511 1511 1510 1507 1506 1505 1504 1503 1502 1501 1499 1498 1497 1495
1516 1517 1517 1518 1518 1519 1519 1520 1520 1520 1519 1519 1519 1519 1518 1518 1518 1518 1518 1517 1516 1515 1514 1513 1513 1512 1511 1510 1510 1510 1510 1508 1506 1504 1503 1502 1501 1500 1498 1497 1495 1494 1493
1515 1516 1516 1517 1518 1518 1519 1519 1519 1518 1517 1517 1518 1517 1517 1517 1517 1516 1516 1515 1514 1513 1512 1511 1510 1509 1509 1508 1507 1507 1507 1506 1505 1503 1501 1500 1498 1497 1496 1494 1493 1491 1490
1514 1515 1516 1516 1516 1517 1518 1518 1518 1517 1516 1516 1516 1515 1516 1515 1515 1514 1514 1513 1512 1511 1510 1509 1508 1507 1506 1505 1504 1504 1503 1503 1502 1501 1499 1497 1495 1494 1492 1491 1489 1488 1486
1512 1513 1514 1515 1515 1516 1516 1516 1516 1515 1515 1514 1514 1513 1513 1513 1512 1512 1511 1510 1510 1509 1508 1507 1505 1504 1503 1502 1501 1500 1500 1500 1499 1498 1496 1494 1492 1490 1489 1487 1486 1484 1483